This demonstration page uses our WeatherBlox Daily Observations layout. Learn more.

Left ArrowRight Arrow

53.62937, 11.41316

Hourly Observations for April 25, 2016

Temp ( °F °C ) Dew Point ( °F °C ) Humidity (%) Winds ( mph kmh ) Pressure ( in mb ) Visibility ( mi km ) Precip ( " mm )
6:20 am 06:20 Mostly Cloudy with Freezing Fog 32 0 30 -1 93 93 WSW 7 11 29.74 1007 1 1 N/A
6:50 am 06:50 Mostly Cloudy with Mist and Fog 32 0 32 0 100 100 WSW 8 13 29.77 1008 1 1 N/A
7:20 am 07:20 Mostly Cloudy with Mist and Fog 32 0 32 0 100 100 SW 7 11 29.77 1008 1 1 N/A
7:50 am 07:50 Mostly Cloudy with Mist and Fog 32 0 32 0 100 100 WSW 8 13 29.74 1007 1 2 N/A
8:20 am 08:20 Mostly Cloudy with Mist and Fog 34 1 34 1 100 100 SW 8 13 29.74 1007 2 4 N/A
8:50 am 08:50 Mostly Cloudy 36 2 34 1 93 93 SW 8 13 29.74 1007 4 7 N/A
9:20 am 09:20 Mostly Cloudy 37 3 36 2 93 93 WSW 9 15 29.74 1007 6 9 N/A
9:50 am 09:50 Mostly Cloudy 37 3 36 2 93 93 SW 8 13 29.74 1007 30 48 N/A
10:20 am 10:20 Partly Cloudy 39 4 36 2 87 87 SW 7 11 29.74 1007 30 48 N/A
10:50 am 10:50 Mostly Cloudy 43 6 36 2 76 76 SW 8 13 29.71 1006 30 48 N/A
11:20 am 11:20 Mostly Cloudy 43 6 34 1 71 71 SSW 13 20 29.71 1006 30 48 N/A
11:50 am 11:50 Mostly Cloudy 43 6 32 0 66 66 WSW 15 24 29.71 1006 30 48 N/A
12:20 pm 12:20 Mostly Cloudy 45 7 32 0 61 61 SW 12 19 29.68 1005 30 48 N/A
12:50 pm 12:50 Mostly Cloudy 45 7 28 -2 53 53 SSW 16 26 29.68 1005 30 48 N/A
1:20 pm 13:20 Mostly Cloudy 45 7 28 -2 53 53 SW 18 30 29.68 1005 30 48 N/A
1:50 pm 13:50 Mostly Cloudy 45 7 28 -2 53 53 SW 21 33 29.65 1004 30 48 N/A
2:20 pm 14:20 Mostly Cloudy 46 8 28 -2 50 50 SW 20 31 29.65 1004 30 48 N/A
2:50 pm 14:50 Mostly Cloudy with Light Showers 45 7 28 -2 53 53 SSW 17 28 29.65 1004 30 48 N/A
3:20 pm 15:20 Mostly Cloudy with Light Showers 43 6 32 0 66 66 SSW 17 28 29.65 1004 30 48 N/A
3:50 pm 15:50 Mostly Cloudy 45 7 32 0 61 61 SSW 17 28 29.65 1004 30 48 N/A
4:20 pm 16:20 Mostly Cloudy 46 8 30 -1 53 53 SSW 15 24 29.62 1003 30 48 N/A
4:50 pm 16:50 Cloudy 45 7 30 -1 57 57 SW 18 30 29.62 1003 30 48 N/A
5:20 pm 17:20 Cloudy 43 6 34 1 71 71 W 9 15 29.62 1003 30 48 N/A
5:50 pm 17:50 Mostly Cloudy with Light Showers 41 5 37 3 87 87 WNW 7 11 29.62 1003 30 48 N/A
6:20 pm 18:20 Mostly Cloudy with Drizzle 39 4 36 2 87 87 W 14 22 29.62 1003 30 48 N/A
6:50 pm 18:50 Cloudy with Light Rain 37 3 36 2 93 93 W 9 15 29.62 1003 30 48 N/A

Powered by AerisWeather